Beauvechain, Belgium

10:01 PM CEST on April 21, 2018 (GMT +0200)
Beauvechain Air Base

Weather History for EBBE - November, 2012

Change the Weather History Date:

Sunday, November 25, 2012

  Actual Average Record
Temperature  
Mean Temperature 49 °F -  
Max Temperature 54 °F 40 °F 64 °F (2006)
Min Temperature 44 °F 35 °F 28 °F (1998)
Degree Days  
Heating Degree Days 16    
Moisture  
Dew Point 42 °F    
Average Humidity 72    
Maximum Humidity 87    
Minimum Humidity 55    
Precipitation  
Precipitation 0.04 in - - ()
Sea Level Pressure  
Sea Level Pressure 29.79 in    
Wind  
Wind Speed 20 mph ()    
Max Wind Speed 32 mph    
Max Gust Speed 44 mph    
Visibility 7.4 miles    
Events Rain    
Averages and records for this station are not official NWS values.
T = Trace of Precipitation, MM = Missing Value Source: Averaged Metar Reports

Daily Weather History Graph

Daily Weather History Graph

Search for Another Location

Airport or City:

Astronomy

Nov. 25, 2012 Rise Set
Actual Time 8:12 AM CET 4:42 PM CET
Civil Twilight 7:35 AM CET 5:20 PM CET
Nautical Twilight 6:54 AM CET 6:01 PM CET
Astronomical Twilight 6:14 AM CET 6:40 PM CET
Moon 3:03 PM CET (11/25) 4:57 AM CET (11/25)
Length of Visible Light 9h 45m
Length of Day
8h 30m
Waxing Gibbous, 91% of the Moon is Illuminated
Nov 25
Waxing Gibbous
Nov 28
Full
Dec 6
Last Quarter
Dec 13
New
Dec 20
First Quarter

Hourly Weather History & Observations

Time (CET) Temp. Windchill Dew Point Humidity Pressure Visibility Wind Dir Wind Speed Gust Speed Precip Events Conditions
12:25 AM 53.6 °F - 48.2 °F 82% 29.71 in 6.2 mi South 13.8 mph - N/A   Mostly Cloudy
1:00 AM 54 °F - 47 °F 72% 29.69 in 19 mi SSE 15.7 mph - -   Clear
1:25 AM 53.6 °F - 48.2 °F 82% 29.68 in 6.2 mi South 15.0 mph - N/A   Mostly Cloudy
2:25 AM 55.4 °F - 46.4 °F 72% 29.65 in 6.2 mi South 16.1 mph - N/A   Mostly Cloudy
3:25 AM 55.4 °F - 46.4 °F 72% 29.62 in 6.2 mi SSW 29.9 mph 41.4 mph N/A   Mostly Cloudy
4:00 AM 56 °F - 46 °F 60% 29.64 in 25 mi SSW 31.3 mph - -   Scattered Clouds
4:25 AM 55.4 °F - 46.4 °F 72% 29.62 in 6.2 mi SSW 28.8 mph - N/A   Mostly Cloudy
5:25 AM 55.4 °F - 46.4 °F 72% 29.65 in 6.2 mi SSW 28.8 mph - N/A   Mostly Cloudy
6:25 AM 55.4 °F - 44.6 °F 67% 29.65 in 6.2 mi SW 29.9 mph 42.6 mph N/A   Mostly Cloudy
7:00 AM 54 °F - 45 °F 63% 29.69 in 28 mi SSW 29.1 mph - - Rain Drizzle
7:13 AM 51.8 °F - 46.4 °F 82% 29.71 in 4.3 mi SW 32.2 mph 43.7 mph N/A Rain Rain
7:25 AM 51.8 °F - 46.4 °F 82% 29.71 in 3.7 mi SW 28.8 mph - N/A Rain Rain
7:28 AM 51.8 °F - 46.4 °F 82% 29.71 in 6.2 mi SW 29.9 mph - N/A Rain Light Rain Showers
8:25 AM 50.0 °F - 42.8 °F 76% 29.74 in 6.2 mi SW 28.8 mph - N/A Rain Light Rain Showers
9:25 AM 50.0 °F - 41.0 °F 71% 29.77 in 6.2 mi SW 23.0 mph - N/A   Mostly Cloudy
10:00 AM 49 °F - 42 °F 69% 29.81 in 9 mi SW 29.1 mph - - Rain Rain Showers
10:25 AM 50.0 °F - 39.2 °F 66% 29.80 in 6.2 mi SW 29.9 mph - N/A   Mostly Cloudy
11:25 AM 50.0 °F - 39.2 °F 66% 29.83 in 6.2 mi SW 28.8 mph 40.3 mph N/A   Mostly Cloudy
12:25 PM 50.0 °F - 39.2 °F 66% 29.86 in 6.2 mi SW 27.6 mph - N/A   Mostly Cloudy
1:00 PM 50 °F - 39 °F 56% 29.86 in 19 mi SW 29.1 mph - -   Clear
1:25 PM 50.0 °F - 39.2 °F 66% 29.86 in 6.2 mi SW 23.0 mph - N/A   Mostly Cloudy
2:25 PM 50.0 °F - 39.2 °F 66% 29.86 in 6.2 mi SW 18.4 mph 34.5 mph N/A   Mostly Cloudy
3:25 PM 50.0 °F - 39.2 °F 66% 29.86 in 6.2 mi SW 20.7 mph - N/A   Partly Cloudy
4:00 PM 50 °F - 39 °F 55% 29.89 in 28 mi SW 20.1 mph - -   Scattered Clouds
4:25 PM 50.0 °F - 39.2 °F 66% 29.89 in 6.2 mi SW 17.3 mph - N/A   Partly Cloudy
5:25 PM 48.2 °F - 39.2 °F 71% 29.89 in 6.2 mi SW 15.0 mph - N/A   Partly Cloudy
6:25 PM 46.4 °F 39.8 °F 39.2 °F 76% 29.89 in 6.2 mi SSW 16.1 mph - N/A   Clear
7:00 PM 47 °F - 39 °F 67% 29.91 in 25 mi SSW 15.7 mph - -  
7:25 PM 46.4 °F 40.1 °F 39.2 °F 76% 29.89 in 6.2 mi SSW 15.0 mph - N/A   Partly Cloudy
8:25 PM 46.4 °F 39.2 °F 39.2 °F 76% 29.89 in 6.2 mi SSW 18.4 mph - N/A   Clear
9:25 PM 46.4 °F 40.7 °F 39.2 °F 76% 29.89 in 6.2 mi SSW 12.7 mph - N/A   Clear
10:00 PM 46 °F - 40 °F 74% 29.91 in 17 mi SSW 13.4 mph - -  
10:25 PM 44.6 °F 37.4 °F 41.0 °F 87% 29.89 in 6.2 mi SSW 16.1 mph - N/A   Clear
11:25 PM 44.6 °F 38.4 °F 39.2 °F 81% 29.86 in 6.2 mi South 12.7 mph - N/A   Partly Cloudy